F5IOR-13 Weather Reports


Display with metric or nautical units.
time (UTC)temp
F
wind
direction
speed
MPH
gust
MPH
rain 1hr
in
rain 24hr
in
rain mn
in
humidity
%
barometer
mb
20260509190818 67 131 6.0 10.0 0.00 0.00 0.00 46 982.4
20260509183818 70 140 6.0 11.0 0.00 0.00 0.00 40 982.3
20260509180818 72 148 7.0 12.0 0.00 0.00 0.00 37 982.2
20260509173818 73 155 7.0 14.0 0.00 0.00 0.00 38 982.2
20260509170818 74 156 8.0 16.0 0.00 0.00 0.00 38 982.3
20260509163818 74 162 10.0 20.0 0.00 0.00 0.00 37 982.5
20260509160818 75 162 12.0 20.0 0.00 0.00 0.00 35 982.9
20260509153818 75 157 12.0 21.0 0.00 0.00 0.00 34 983.2
20260509150818 75 155 11.0 21.0 0.00 0.00 0.00 35 983.6
20260509143818 75 161 8.0 20.0 0.00 0.00 0.00 38 983.8
20260509140818 74 164 8.0 19.0 0.00 0.00 0.00 40 984.0
20260509133818 74 165 10.0 19.0 0.00 0.00 0.00 40 984.1
20260509130818 74 163 11.0 18.0 0.00 0.00 0.00 42 984.4
20260509123818 73 160 11.0 18.0 0.00 0.00 0.00 40 984.6
20260509120818 72 159 9.0 18.0 0.00 0.00 0.00 37 984.9
20260509113818 72 162 10.0 18.0 0.00 0.00 0.00 36 985.1
20260509110818 70 166 10.0 18.0 0.00 0.00 0.00 37 985.3
20260509103818 69 163 10.0 18.0 0.00 0.00 0.00 39 985.4
20260509100818 66 166 7.0 13.0 0.00 0.00 0.00 53 986.5
20260509093818 66 168 7.0 13.0 0.00 0.00 0.00 56 986.7
20260509092218 64 171 7.0 12.0 0.00 0.00 0.00 60 986.9
20260509090618 63 173 7.0 12.0 0.00 0.00 0.00 62 987.0
20260509085018 62 173 7.0 12.0 0.00 0.00 0.00 64 986.9
20260509083418 61 174 6.0 11.0 0.00 0.00 0.00 68 986.8
20260509082618 61 174 6.0 11.0 0.00 0.00 0.00 68 986.8
20260509081818 61 174 6.0 11.0 0.00 0.00 0.00 68 986.8
20260509081018 60 176 6.0 10.0 0.00 0.00 0.00 69 986.8
20260509080218 60 176 6.0 10.0 0.00 0.00 0.00 69 986.8
20260509075818 59 180 5.0 10.0 0.00 0.00 0.00 70 986.7
20260509075418 59 180 5.0 10.0 0.00 0.00 0.00 70 986.7
20260509075018 59 180 5.0 10.0 0.00 0.00 0.00 70 986.7
20260509074618 59 180 5.0 10.0 0.00 0.00 0.00 70 986.7
20260509074418 59 180 5.0 10.0 0.00 0.00 0.00 70 986.7
20260509074218 59 180 5.0 10.0 0.00 0.00 0.00 70 986.7
20260509074018 59 180 5.0 10.0 0.00 0.00 0.00 70 986.7
20260509073818 59 180 5.0 10.0 0.00 0.00 0.00 70 986.7
20260509073718 59 180 5.0 10.0 0.00 0.00 0.00 70 986.7
20260509073618 59 180 5.0 10.0 0.00 0.00 0.00 70 986.7
20260509073518 59 180 5.0 10.0 0.00 0.00 0.00 70 986.7